This demonstration page uses our WeatherBlox Daily Observations layout. Learn more.

Left ArrowRight Arrow

Hourly Observations for May 8, 2017

Temp ( °F °C ) Dew Point ( °F °C ) Humidity (%) Winds ( mph kmh ) Pressure ( in mb ) Visibility ( mi km ) Precip ( " mm )
12:15 am 00:15 Clear 70 21 54 12 57 57 S 15 24 29.74 1007 10 16 0.00 0.00
12:35 am 00:35 Clear 70 21 54 12 57 57 S 15 24 29.77 1008 10 16 0.00 0.00
12:55 am 00:55 Clear 70 21 54 12 57 57 SSW 14 22 29.77 1008 10 16 0.00 0.00
1:15 am 01:15 Clear 70 21 54 12 57 57 SSW 15 24 29.80 1009 10 16 0.00 0.00
1:35 am 01:35 Clear 66 19 54 12 64 64 S 16 26 29.77 1008 10 16 0.00 0.00
1:55 am 01:55 Clear 68 20 52 11 56 56 SSW 15 24 29.77 1008 10 16 0.00 0.00
2:15 am 02:15 Clear 66 19 52 11 60 60 SSW 9 15 29.77 1008 10 16 0.00 0.00
2:35 am 02:35 Clear 66 19 52 11 60 60 SSW 12 19 29.77 1008 10 16 0.00 0.00
2:55 am 02:55 Clear 66 19 52 11 60 60 SSW 9 15 29.77 1008 10 16 0.00 0.00
3:15 am 03:15 Clear 64 18 52 11 64 64 SSW 12 19 29.77 1008 10 16 0.00 0.00
3:35 am 03:35 Clear 66 19 50 10 56 56 SSW 13 20 29.77 1008 10 16 0.00 0.00
3:55 am 03:55 Clear 64 18 50 10 60 60 SSW 13 20 29.77 1008 10 16 0.00 0.00
4:15 am 04:15 Clear 64 18 50 10 60 60 S 13 20 29.77 1008 10 16 0.00 0.00
4:35 am 04:35 Clear 64 18 50 10 60 60 S 15 24 29.77 1008 10 16 0.00 0.00
4:55 am 04:55 Clear 64 18 50 10 60 60 SSW 15 24 29.77 1008 10 16 0.00 0.00
5:15 am 05:15 Clear 63 17 50 10 64 64 SSW 14 22 29.80 1009 10 16 0.00 0.00
5:35 am 05:35 Clear 64 18 50 10 60 60 SSW 15 24 29.77 1008 10 16 0.00 0.00
5:55 am 05:55 Clear 64 18 50 10 60 60 SSW 15 24 29.77 1008 10 16 0.00 0.00
6:15 am 06:15 Mostly Clear 63 17 50 10 64 64 SSW 13 20 29.80 1009 10 16 0.00 0.00
6:35 am 06:35 Sunny 63 17 50 10 64 64 S 8 13 29.80 1009 10 16 0.00 0.00
6:55 am 06:55 Sunny 61 16 50 10 68 68 SSW 7 11 29.83 1010 10 16 0.00 0.00
7:15 am 07:15 Sunny 61 16 50 10 68 68 SSE 5 7 29.83 1010 10 16 0.00 0.00
7:35 am 07:35 Sunny 61 16 52 11 72 72 SSW 3 6 29.83 1010 10 16 0.00 0.00
7:55 am 07:55 Sunny 63 17 52 11 68 68 SW 8 13 29.83 1010 10 16 0.00 0.00
8:15 am 08:15 Sunny 64 18 52 11 64 64 SW 8 13 29.83 1010 10 16 0.00 0.00
8:35 am 08:35 Sunny 66 19 52 11 60 60 SSW 13 20 29.80 1009 10 16 0.00 0.00
8:55 am 08:55 Sunny 68 20 52 11 56 56 WSW 9 15 29.80 1009 10 16 0.00 0.00
9:15 am 09:15 Sunny 68 20 52 11 56 56 WSW 9 15 29.83 1010 10 16 0.00 0.00
9:35 am 09:35 Sunny 70 21 52 11 53 53 WNW 8 13 29.83 1010 10 16 0.00 0.00
9:55 am 09:55 Sunny 72 22 52 11 50 50 W 8 13 29.83 1010 10 16 0.00 0.00
10:15 am 10:15 Sunny 72 22 52 11 50 50 W 7 11 29.83 1010 10 16 0.00 0.00
10:35 am 10:35 Sunny 73 23 54 12 50 50 W 8 13 29.80 1009 10 16 0.00 0.00
10:55 am 10:55 Sunny 75 24 54 12 47 47 W 8 13 29.80 1009 10 16 0.00 0.00
11:15 am 11:15 Sunny 79 26 54 12 42 42 W 8 13 29.80 1009 10 16 0.00 0.00
11:35 am 11:35 Sunny 81 27 54 12 39 39 W 9 15 29.77 1008 10 16 0.00 0.00
11:55 am 11:55 Sunny 82 28 52 11 35 35 WSW 9 15 29.77 1008 10 16 0.00 0.00
12:15 pm 12:15 Sunny 82 28 52 11 35 35 SW 5 7 29.77 1008 10 16 0.00 0.00
12:35 pm 12:35 Sunny 84 29 52 11 33 33 W 9 15 29.77 1008 10 16 0.00 0.00
12:55 pm 12:55 Sunny 84 29 52 11 33 33 W 9 15 29.77 1008 10 16 0.00 0.00
1:15 pm 13:15 Sunny 84 29 52 11 33 33 W 10 17 29.77 1008 10 16 0.00 0.00
1:35 pm 13:35 Sunny 84 29 52 11 33 33 SSW 10 17 29.77 1008 10 16 0.00 0.00
1:55 pm 13:55 Sunny 86 30 52 11 31 31 WSW 13 20 29.77 1008 10 16 0.00 0.00
2:15 pm 14:15 Sunny 86 30 52 11 31 31 SW 10 17 29.77 1008 10 16 0.00 0.00
2:35 pm 14:35 Sunny 86 30 50 10 29 29 S 3 6 29.74 1007 10 16 0.00 0.00
2:55 pm 14:55 Sunny 88 31 50 10 27 27 SSW 7 11 29.71 1006 10 16 0.00 0.00
3:15 pm 15:15 Mostly Sunny 88 31 48 9 25 25 SW 10 17 29.71 1006 10 16 0.00 0.00
3:35 pm 15:35 Mostly Sunny 88 31 48 9 25 25 Calm 29.71 1006 10 16 0.00 0.00
3:55 pm 15:55 Sunny 88 31 50 10 27 27 SW 12 19 29.71 1006 10 16 0.00 0.00
4:15 pm 16:15 Sunny 88 31 52 11 29 29 S 12 19 29.71 1006 10 16 0.00 0.00
4:35 pm 16:35 Partly Cloudy 88 31 50 10 27 27 W 8 13 29.71 1006 10 16 0.00 0.00
4:55 pm 16:55 Mostly Sunny 88 31 50 10 27 27 W 9 15 29.71 1006 10 16 0.00 0.00
5:15 pm 17:15 Sunny 88 31 48 9 25 25 SSW 8 13 29.71 1006 10 16 0.00 0.00
5:35 pm 17:35 Sunny 88 31 50 10 27 27 WSW 12 19 29.71 1006 10 16 0.00 0.00
5:55 pm 17:55 Mostly Cloudy 88 31 48 9 25 25 W 8 13 29.71 1006 10 16 0.00 0.00
6:15 pm 18:15 Mostly Cloudy 88 31 48 9 25 25 WSW 8 13 29.71 1006 10 16 0.00 0.00
6:35 pm 18:35 Mostly Cloudy 84 29 54 12 35 35 NNW 15 24 29.74 1007 10 16 0.00 0.00
6:55 pm 18:55 Mostly Cloudy 82 28 55 13 40 40 N 16 26 29.74 1007 10 16 0.00 0.00
7:15 pm 19:15 Mostly Sunny 81 27 55 13 42 42 N 17 28 29.74 1007 10 16 0.00 0.00
7:35 pm 19:35 Sunny 79 26 55 13 45 45 NNE 20 31 29.77 1008 10 16 0.00 0.00
7:55 pm 19:55 Sunny 75 24 54 12 47 47 NNE 15 24 29.77 1008 10 16 0.00 0.00
8:15 pm 20:15 Sunny 73 23 54 12 50 50 NNE 14 22 29.80 1009 10 16 0.00 0.00
8:35 pm 20:35 Sunny 73 23 54 12 50 50 NNE 14 22 29.80 1009 10 16 0.00 0.00
8:55 pm 20:55 Clear 72 22 54 12 53 53 NNE 13 20 29.85 1011 10 16 0.00 0.00
9:15 pm 21:15 Clear 70 21 54 12 57 57 NNE 10 17 29.85 1011 10 16 0.00 0.00
9:35 pm 21:35 Clear 70 21 54 12 57 57 NNE 12 19 29.85 1011 10 16 0.00 0.00
9:55 pm 21:55 Clear 66 19 54 12 64 64 NNE 9 15 29.91 1013 10 16 0.00 0.00
10:15 pm 22:15 Clear 66 19 52 11 60 60 NNE 12 19 29.91 1013 10 16 0.00 0.00
10:35 pm 22:35 Clear 66 19 52 11 60 60 NNE 12 19 29.91 1013 10 16 0.00 0.00
10:55 pm 22:55 Clear 66 19 52 11 60 60 NNE 9 15 29.91 1013 10 16 0.00 0.00
11:15 pm 23:15 Partly Cloudy 64 18 52 11 64 64 NNE 8 13 29.94 1014 10 16 0.00 0.00
11:35 pm 23:35 Mostly Clear 63 17 52 11 68 68 NNE 8 13 29.94 1014 10 16 0.00 0.00
11:55 pm 23:55 Mostly Clear 63 17 52 11 68 68 NNE 8 13 29.94 1014 10 16 0.00 0.00

Powered by AerisWeather